Simultaneous Nadir Overpasses (SNOs) Predictions

Prediction of SNOs between GOES-16 and NPP Satellite Orbit:

Table of predicted SNOs for the next 14.0 days since TLE Epoch: 8/20/2022
Index Date Time (GOES-16) GOES-16 Lat,Lon NPP Lat,Lon Distance(km) Time Diff (sec)
1 08/21/2022 06:45:38 0.03, -75.20 1.03, -79.56 497.48 80
2 08/22/2022 06:24:15 0.03, -75.20 -0.02, -75.04 18.95 80
3 08/24/2022 18:27:29 0.00, -75.22 -0.12, -75.82 67.87 80
4 08/25/2022 18:11:24 0.00, -75.23 0.87, -71.29 449.18 80
5 08/27/2022 06:33:14 -0.01, -75.24 0.27, -76.57 150.99 80
6 08/28/2022 06:11:49 -0.00, -75.25 -0.72, -72.03 366.55 80
7 08/29/2022 18:33:46 0.00, -75.28 -0.46, -77.34 234.99 80
8 08/30/2022 18:17:42 0.00, -75.30 0.53, -72.81 282.97 80
9 09/01/2022 06:39:31 -0.00, -75.31 0.60, -78.09 316.10 80
10 09/02/2022 06:18:07 -0.00, -75.33 -0.39, -73.56 201.78 80
